Location: Ash Observatory
(39.7321°N, 75.2004°W)
Time: 18:57:38
(UTC-05:00)

Envisat - Visible Passes

Search period start: 14 December 2018 00:00
Search period end: 24 December 2018 00:00
Orbit: 764 x 766 km, 98.2° (Epoch: 14 December)

Date Brightness Start Highest point End Pass type
(mag) Time Alt. Az. Time Alt. Az. Time Alt. Az.
14 Dec 6.0 06:24:10 10° ENE 06:26:41 14° E 06:29:13 10° ESE visible
14 Dec 4.3 17:37:49 10° ESE 17:41:11 18° ENE 17:44:34 10° NNE visible
14 Dec 3.6 19:14:48 10° S 19:19:45 54° W 19:24:45 10° NNW visible
15 Dec 2.8 18:37:59 10° SSE 18:43:01 68° ENE 18:48:04 10° N visible
15 Dec 5.8 20:20:08 10° WSW 20:22:29 13° W 20:24:52 10° WNW visible
16 Dec 3.7 18:02:05 10° SE 18:06:28 30° ENE 18:10:52 10° N visible
16 Dec 4.7 19:41:00 10° SSW 19:45:25 30° W 19:49:52 10° NW visible
17 Dec 6.5 06:14:34 10° E 06:15:22 10° E 06:16:09 10° E visible
17 Dec 4.5 17:27:26 10° E 17:30:08 15° ENE 17:32:49 10° NNE visible
17 Dec 3.2 19:03:30 10° S 19:08:33 69° W 19:13:37 10° NNW visible
18 Dec 3.0 18:26:57 10° SSE 18:31:51 53° ENE 18:36:48 10° N visible
18 Dec 5.5 20:07:55 10° SW 20:11:11 17° W 20:14:27 10° NW visible
19 Dec 5.8 06:37:34 10° NE 06:41:12 19° E 06:44:49 10° SE visible
19 Dec 3.9 17:51:20 10° ESE 17:55:22 25° ENE 17:59:26 10° NNE visible
19 Dec 4.3 19:29:27 10° SSW 19:34:09 38° W 19:38:54 10° NNW visible
20 Dec 4.7 17:17:29 10° ENE 17:19:05 11° ENE 17:20:42 10° NE visible
20 Dec 2.9 18:52:16 10° SSE 18:57:20 87° WSW 19:02:27 10° NNW visible
21 Dec 3.3 18:15:59 10° SE 18:20:43 42° ENE 18:25:29 10° N visible
21 Dec 5.2 19:56:02 10° SW 19:59:53 22° W 20:03:45 10° NW visible
22 Dec 6.0 06:26:58 10° NE 06:29:54 15° E 06:32:48 10° SE visible
22 Dec 4.2 17:40:42 10° ESE 17:44:17 20° ENE 17:47:53 10° NNE visible
22 Dec 3.8 19:18:01 10° S 19:22:55 49° W 19:27:51 10° NNW visible
23 Dec 2.8 18:41:07 10° SSE 18:46:10 74° ENE 18:51:15 10° N visible
23 Dec 5.9 20:23:52 10° WSW 20:25:42 12° W 20:27:32 10° WNW visible
